Regional Weather Roundup
Issued by NWS Spokane, WA

Home | Current Version | Previous Version | Text Only | Print | Product List | Glossary On
Versions: 1 2 3 4 5 6 7 8 9 10 11 12 13 14 15 16 17 18 19 20 21 22 23 24 25 26 27 28 29 30 31 32 33 34 35 36 37 38 39 40 41 42 43 44 45 46 47 48 49 50
000
NZUS01 KOTX 231910
RWROTX
EASTERN WASHINGTON/NORTHERN IDAHO ROUNDUP
NATIONAL WEATHER SERVICE, SPOKANE WA
1100 AM PST SUN NOV 23 2014

Note: "fair" indicated few or no clouds below 12,000 feet with no
significant weather and/or obstructions to visibility.

...NORTHEAST WASHINGTON AND NORTHERN IDAHO PANHANDLE...

CITY           SKY/WX    TMP DP  RH WIND       PRES   REMARKS
SPOKANE INTL   CLOUDY    37  34  89 SW23G30   30.04F
SPOKANE DOWNTO CLOUDY    40  34  79 SW10      30.07F
COEUR D ALENE  CLOUDY    37  34  87 CALM      30.06F
DEER PARK      CLOUDY    34  33  96 S5        30.06F WCI  30
SANDPOINT      LGT RAIN  34  34 100 S6        30.07F WCI  29

...SOUTHEAST WASHINGTON AND SOUTHERN IDAHO PANHANDLE...

CITY           SKY/WX    TMP DP  RH WIND       PRES   REMARKS
WALLA WALLA    CLOUDY    50  34  54 S18       30.18F
PULLMAN/MOSCOW CLOUDY    44  33  65 SW22G31   30.13F
LEWISTON       CLOUDY    47  35  63 S7        30.16F
LOWELL           N/A     39  36  89 CALM      30.23F

...COLUMBIA BASIN...

CITY           SKY/WX    TMP DP  RH WIND       PRES   REMARKS
EPHRATA        PTSUNNY   44  34  67 S5        30.02F
MOSES LAKE     CLOUDY    45  36  70 S16       30.05F
TRI CITIES     CLOUDY    53  36  52 SW25G33   30.15F
HERMISTON      PTSUNNY   55  33  43 SW21G28   30.17F
PENDLETON      PTSUNNY   50  33  52 SW16      30.19F

...EAST SLOPES CASCADES...

CITY           SKY/WX    TMP DP  RH WIND       PRES   REMARKS
THE DALLES     MOSUNNY   58  36  43 W22G28    30.17F
YAKIMA         CLOUDY    43  32  65 SW7       30.11R
ELLENSBURG     LGT RAIN  43  36  76 CALM      30.06S
WENATCHEE      CLOUDY    46  32  58 E13       30.00F
OMAK           CLOUDY    33  31  92 SE8       30.00F WCI  26

...SOUTHERN BRITISH COLUMBIA...

CITY           SKY/WX    TMP DP  RH WIND       PRES   REMARKS
PENTICTON      CLOUDY    41  30  65 S22G30    29.96R
CRANBROOK      CLOUDY    34  25  69 S13G21    29.95F WCI  25

...WESTERN MONTANA...

CITY           SKY/WX    TMP DP  RH WIND       PRES   REMARKS
MISSOULA       CLOUDY    37  27  67 SE6       30.11F

...NEIGHBORING CITIES...

CITY           SKY/WX    TMP DP  RH WIND       PRES   REMARKS
SEATTLE        CLOUDY    50  45  83 S14G20    30.11R
CALGARY        PTSUNNY   30  23  74 S6        29.72F WCI  24



USA.gov is the U.S. government's official web portal to all federal, state and local government web resources and services.